FENGYUN 1C DEB

Satellite information

Favourite Embed

Satellite Type and Status

DEBRISIN ORBIT

Key statistics

Satellite FENGYUN 1C DEB at a glance.

Uptime

9656

Days in orbit

Revolutions

≈ 14.3

Per day

Orbit

SSO

Sun Synchronous Orbit

Inclination

99.0

Latest

Satellite identification and parameters

Extended collection of information and parameters for FENGYUN 1C DEB.

Object identification

Identified? True

Debris? True

Object name: FENGYUN 1C DEB

International designator: 1999-025DWP

Object number (NORAD): 36262

Object ID (CCSDS): 36262

Country: PEOPLES REPUBLIC OF CHINA (PRC)

Current information (Y/N): Y

RCS size: SMALL

Orbital parameters

Period: 100.863 minutes

Inclination: 98.9666 deg

SMA: 7177.651 km

Apoapsis: 843.9 km

Periapsis: 755.132 km

RAAN: 164.8625 deg

Eccentricy: 0.0061836

Argument of periapsis: 90.8021 deg

Mean anomaly: 270.0245 deg

Mean motion: 14.27674669 rev/day

Mean motion (dot): 0.00000778 rev/day2

B* drag term: 0.00032771786 1/REarth

Two-line elements (TLE)

Creation date: Oct. 13, 2025, 2:18 a.m.

Reference frame: TEME

Reference center: EARTH

Epoch: Oct. 12, 2025, 10:16 p.m. UTC

TLE line 0: 0 FENGYUN 1C DEB

TLE line 1: 1 36262U 99025DWP 25285.92809536 .00000778 00000-0 32772-3 0 9994

TLE line 2: 2 36262 98.9666 164.8625 0061836 90.8021 270.0245 14.27674669886296

Live tracking on map

Real-time ground track for satellite FENGYUN 1C DEB.

In-orbit conjunctions

A list of the most updated potential collisions computed for object FENGYUN 1C DEB.

Target Orbit TCA Probability of collision Miss distance Type
SL-16 R/B LEO 2025-08-10 22:45:56 0.0002084463 153.0 (m) ROCKET BODY
COSMOS 158 LEO 2025-03-02 15:37:14 0.0004117903 173.0 (m) PAYLOAD
FENGYUN 1C DEB SSO 2024-09-25 21:29:54 0.00061941 165.0 (m) DEBRIS
COSMOS 1603 LEO 2024-07-21 00:13:18 0.000243464 70.0 (m) PAYLOAD

Associated space launch

Chinese polar orbiting meteorological satellite

FENGYUN 1C DEB was lifted into orbit during the mission ‘Long March 4B | Feng Yun 1C’, on board a Long March 4B space rocket.

The launch took place on May 10, 1999, 1:33 a.m. from Launch Complex 7.

For more information about the launch, click the button.

Launch to space Long March 4B | Feng Yun 1C
Long March 4B | Feng Yun 1C

Agency: N/A

Status: Launch Successful

Launch date: May 10, 1999, 1:33 a.m. UTC

Rocket: Long March 4B

Launch pad: Launch Complex 7

Location: Taiyuan Satellite Launch Center, People's Republic of China

...

Latest news about this satellite

There are no fresh news available about this satellite. Check back as we update our databases every day.


Newsletter sign-up

Weekly statistics, charts and insights to help you stay on top of the space industry.